www.pogodaiklimat.ru

Погода и климат >> Архив погоды >> Аргентина >> Buenos Aires Aeropuerto


АРХИВ ПОГОДЫ в Buenos Aires Aeropuerto

Время (UTC), дата Ветер
(напр.,м/с)
 
Видим.   Явления Облачность Т
(С)
Тd
(С)
f
(%)
Тe
(С)
Тes
(С)
Комфортность P
(гПа)
Po
(гПа)
Тmin
(С)
Tmax
(С)
R
(мм)
R24
(мм)
S
(см)
00 18.05 В 6 10 км ясно +16.6 +13.8 84 +15 +15 по сезону 1016.1 1015.4 +15.6 +18.0
03 18.05 В 8 10 км 8/0
[Cs]
+15.8 +11.6 76 +14 +14 по сезону 1015.8 1015.2
06 18.05 В 5 10 км 10/5 840 м
[Sc Ac As]
+15.3 +11.8 80 +14 +14 тепло 1014.8 1014.1
09 18.05 В 5 10 км 10/8 450 м
[St Ac As]
+15.5 +13.0 85 +14 +14 тепло 1013.5 1012.8
12 18.05 В 5 10 км 10/9 210 м
[St Ac As]
+15.8 +14.1 90 +15 +15 тепло 1012.8 1012.1 +15.0 +16.8
15 18.05 В 5 10 км 10/10 360 м
[St]
+17.2 +14.4 84 +17 +17 тепло 1011.7 1011.0
18 18.05 В 5 9000 м слабая морось 10/6 700 м
[St Ac As]
+17.2 +15.5 90 +16 +17 по сезону 1008.9 1008.2 0.0
21 18.05 В 5 9000 м слабая морось 10/10 700 м
[St]
+18.3 +16.0 86 +18 +18 тепло 1008.4 1007.7
00 19.05 В 5 8000 м слабый дождь {морось} 10/6 720 м
[St As op]
+18.0 +15.8 87 +18 +18 тепло 1008.0 1007.3 +15.8 +18.6 3
03 19.05 В 6 10 км {гроза} 10/10 600 м
[St]
+18.2 +16.4 89 +18 +18 тепло 1005.6 1004.9
06 19.05 С 3 9000 м слабый дождь {гроза} 10/6 500 м
[St Ac As]
+17.9 +16.4 91 +18 +18 тепло 1004.7 1004.0 0.8
09 19.05 СВ 4 5000 м дождь {морось} 10/9 150 м
[St As op]
+17.2 +16.7 97 +17 +17 тепло 1003.1 1002.4
12 19.05 СЗ 5 5000 м дымка {дождь, морось} 9/9 150 м
[St]
+16.5 +16.0 97 +16 +16 тепло 1004.4 1003.7 +16.5 +18.5 4
15 19.05 СЗ 5 10 км 10/10 240 м
[St]
+15.3 +13.7 90 +14 +14 по сезону 1005.2 1004.5
18 19.05 СЗ 5 10 км 6/6 600 м
[Sc]
+17.3 +12.9 75 +17 +18 по сезону 1004.5 1003.8
21 19.05 С 6 10 км 9/9 540 м
[Sc]
+13.5 +9.4 76 +11 +11 прохладно 1006.1 1005.4
00 20.05 СЗ 6 10 км 10/10 450 м
[Sc]
+12.8 +9.1 78 +10 +10 прохладно 1006.7 1006.0 +12.5 +17.5
03 20.05 СЗ 6 10 км в посл. час морось 9/9 270 м
[St]
+12.6 +10.7 88 +10 +10 прохладно 1006.1 1005.4
06 20.05 СЗ 7 10 км {морось} 10/10 450 м
[St]
+11.7 +8.9 83 +9 +9 прохладно 1006.9 1006.2 0.0
09 20.05 СЗ 4 10 км 6/6 450 м
[Frnb]
+10.2 +7.7 84 +7 +7 холодно 1007.6 1006.9
12 20.05 С 6 10 км в посл. час морось 9/9 300 м
[Frnb]
+10.2 +7.7 84 +7 +7 холодно 1008.8 1008.1 +9.8 +13.0 0.0
15 20.05 С 5 10 км 10/10 600 м
[Sc]
+11.2 +7.1 76 +9 +9 холодно 1010.0 1009.3
18 20.05 СЗ 5 7000 м дождь 10/10 570 м
[Frnb]
+11.6 +8.4 81 +9 +9 холодно 1009.3 1008.6 0.0
21 20.05 СЗ 7 10 км {морось} 10/10 450 м
[Sc]
+10.5 +8.3 86 +7 +7 очень
холодно
1010.0 1009.3
00 21.05 С 6 10 км {морось} 10/10 240 м
[St]
+10.3 +8.7 90 +7 +7 холодно 1011.0 1010.2 +10.0 +12.0 0.2
03 21.05 СЗ 7 10 км {морось} 10/10 210 м
[St]
+10.6 +9.4 92 +7 +7 холодно 1010.7 1010.0
06 21.05 СЗ 6 10 км {морось} 10/10 240 м
[St]
+11.0 +10.0 94 +8 +8 прохладно 1009.3 1008.6 0.2
09 21.05 СЗ 5 9000 м слабая морось 10/10 240 м
[St]
+10.9 +9.5 91 +8 +8 прохладно 1009.1 1008.4
12 21.05 СЗ 5 10 км {морось} 10/10 240 м
[St]
+11.0 +9.8 92 +8 +8 прохладно 1010.3 1009.6 +10.2 +11.2 0.4
15 21.05 З 6 10 км 9/9 450 м
[Sc]
+14.0 +10.2 78 +12 +12 по сезону 1010.7 1010.0
18 21.05 СЗ 7 10 км ясно +17.6 +8.8 56 +17 +18 тепло 1009.4 1008.6
21 21.05 З 3 10 км ясно +17.6 +8.8 56 +18 +18 тепло 1010.8 1010.1
00 22.05 СЗ 4 10 км ясно +14.1 +9.7 75 +13 +13 по сезону 1013.3 1012.6 +11.0 +18.4
03 22.05 З 3 10 км ясно +15.0 +9.4 69 +15 +15 тепло 1014.8 1014.1
06 22.05 З 2 10 км ясно +14.3 +9.4 72 +14 +14 тепло 1015.2 1014.5
09 22.05 З 2 10 км 5/0
[Cs]
+12.8 +10.5 86 +12 +12 по сезону 1016.0 1015.3
12 22.05 С 2 10 км 6/0
[Cs]
+14.5 +11.7 83 +14 +15 тепло 1017.8 1017.2 +12.5 +15.5
15 22.05 С 2 10 км 3/0
[Ci]
+17.2 +12.4 73 +18 +24 тепло 1018.3 1017.6
18 22.05 СВ 2 10 км 5/0
[Ac trans Ci]
+19.5 +12.7 65 +21 +25 комфорт 1017.4 1016.8
21 22.05 В 4 10 км 10/0
[Cs]
+16.2 +11.4 73 +15 +15 по сезону 1017.3 1016.6
00 23.05 В 4 10 км 10/0
[Cs]
+17.0 +13.1 78 +17 +17 тепло 1018.4 1017.7 +14.5 +19.8
03 23.05 С 1 10 км 10/0
[Cs]
+17.2 +13.3 78 +18 +18 тепло 1020.0 1019.3
06 23.05 В 2 10 км 10/0
[Cs]
+16.5 +12.6 78 +17 +17 тепло 1019.5 1018.8
09 23.05 В 4 10 км 10/0
[Cs]
+16.0 +12.8 81 +15 +15 тепло 1018.1 1017.4
12 23.05 В 3 10 км 4/0
[Ci]
+16.6 +13.1 80 +16 +17 тепло 1018.4 1017.7 +15.2 +17.3
15 23.05 В 4 10 км 3/0
[Cs]
+18.0 +13.5 75 +18 +22 тепло 1017.5 1016.8
18 23.05 В 4 10 км ясно +19.6 +11.7 60 +21 +24 комфорт 1014.2 1013.6
21 23.05 В 4 10 км ясно +16.2 +13.2 82 +16 +16 тепло 1013.5 1012.8
00 24.05 В 4 10 км ясно +16.2 +14.5 90 +16 +16 тепло 1013.2 1012.5 +16.0 +19.6
03 24.05 С 3 10 км 10/0
[As op]
+17.5 +14.2 81 +18 +18 тепло 1013.6 1012.9
06 24.05 штиль 0 10 км 10/0
[Ac As]
+16.6 +14.5 87 +16 +16 тепло 1013.2 1012.5
09 24.05 С 3 10 км 9/1 450 м
[St Ac As]
+16.8 +14.7 87 +17 +17 тепло 1012.7 1012.0
12 24.05 С 2 10 км 10/10 300 м
[St]
+16.6 +14.7 89 +17 +17 тепло 1013.8 1013.0 +16.2 +17.8
15 24.05 С 2 10 км 10/10 400 м
[St]
+17.6 +15.8 89 +18 +18 тепло 1013.6 1012.9
18 24.05 В 2 9000 м дымка 10/10 150 м
[St]
+17.2 +15.9 92 +17 +17 тепло 1011.9 1011.2

 

Местоположение метеостанции Buenos Aires Aeropuerto (Аргентина): широта -34.56 долгота -58.41 высота над уровнем моря 6 м.

В архиве по умолчанию представлена погода в Buenos Aires Aeropuerto за последнюю неделю. Архивные данные за месяц целиком и за предыдущие месяцы, начиная с января 2011 года, Вы можете получить, выбрав интересующий диапазон дат из раскрывающегося списка и нажав кнопку "Ввод!".

Внимание! Время в таблицах - всемирное. Для получения местного времени необходимо прибавить поправку, которая в Buenos Aires Aeropuerto равна -3 ч.

Смотрите также архив погоды в соседних городах и на ближайших метеорологических станциях:

Погода в Buenos Aires (Аргентина) (7 км)
Погода в Ezeiza (Аргентина) (30 км)
Погода в Colonia (Уругвай) (55 км)
Погода в La Plata (Аргентина) (64 км)
Погода в Mercedes (Уругвай) (149 км)
Погода в Gualeguaychu (Аргентина) (174 км)
Погода в Las Flores (Аргентина) (179 км)
Погода в Melilla (Уругвай) (199 км)
Погода в Prado (Уругвай) (205 км)
Погода в Dolores (Аргентина) (206 км)

Пояснения к столбцам:

Ветер - указаны скорость ветра в м/с - средняя за 10 мин, порывы в срок и между сроками (в фигурных скобках) и направление, откуда дует ветер: С - северный, СВ - северо-восточный, В - восточный, ЮВ - юго-восточный, Ю - южный, ЮЗ - юго-западный, З - западный, СЗ - северо-западный.
Видимость - горизонтальная дальность видимости в метрах или километрах. При видимости от 1 до 10 км при отсутствии осадков обычно наблюдается дымка, при ухудшении видимости до 1 км и менее - туман. В сухую погоду видимость может ухудшаться дымом, пылью или мглою.
Явления - указаны атмосферные явления, наблюдавшиеся в срок или в последний час перед сроком; фигурными скобками обозначены явления, наблюдавшиеся между сроками (за 1-3 часа до срока); квадратными скобками обозначены град или гололедные отложения с указанием их диаметра в мм.
Облачность - указаны через наклонную черту общая и нижняя облачность в баллах и высота нижней границы облаков в метрах; квадратными скобками обозначены формы облаков: Ci - перистые, Cs - перисто-слоистые, Cc - перисто-кучевые, Ac - высококучевые, As - высокослоистые, Sc - слоисто-кучевые, Ns - слоисто-дождевые, Cu - кучевые, Cb - кучево-дождевые. Подробнее классификацию облаков см. в Атласе облаков (PDF).
T - Температура воздуха - температура, измеренная на высоте 2 м над землей.
Td - Температура точки росы - температура, при понижении до которой содержащийся в воздухе водяной пар достигнет насыщения.
f - Относительная влажность воздуха - влажноcть воздуха, измеренная на высоте 2 м над землей.
Te - Эффективная температура - температура, которую ощущает одетый по сезону человек в тени. Характеристика душности погоды. При расчете учитывается влияние влажности воздуха и скорости ветра на теплоощущения человека.
Tes - Эффективная температура на солнце - температура, которую ощущает человек, с поправкой на солнечный нагрев. Характеристика знойности погоды. Зависит от высоты солнца над горизонтом, облачности и скорости ветра. Ночью, в пасмурную погоду, а также при ветре 12 м/с и более поправка равна нулю.
P - Атмосферное давление - приведенное к уровню моря атмосферное давление.
Po - Атмосферное давление - измеренное на уровне метеостанции атмосферное давление.
Tmin - Минимальная температура - минимум температуры воздуха на высоте 2 м над землей.
Tmax - Максимальная температура - максимум температуры воздуха на высоте 2 м над землей.
R - Количество осадков - Количество выпавших осадков за период времени, мм. При наведении курсора мыши на число - период времени, за который выпало указанное количество осадков.
R24 - Количество осадков - Количество выпавших осадков за 24 часа, мм.
S - Снежный покров - Высота снежного покрова, см. При наведении курсора мыши на число - состояние снежного покрова и степень покрытия местности в баллах.